THA1123 VTUK-VTCT

Flight info

Callsign THA1123
Flight time 0h 49m
Altitude 34000
Route ONUVI1B ONUVI W16 PANKU W15 PAE W22 BENVI
Aircraft A346/H-SDE2E3FGHIJ3J4J5M1RWXY/LB1D1

Departure

Time 2026-05-06 14:22
Airport Khon Kaen Airport (VTUK)

Arrival

Time 2026-05-06 15:11
Airport Mae Fah Luang - Chiang Rai International Airport (VTCT)
Time Latitude Longitude Altitude Speed Heading
2026-05-06 14:11 16.46567 102.78609 649 ft 0 kts 123°
2026-05-06 14:16 16.46609 102.78541 649 ft 0 kts 36°
2026-05-06 14:16 16.46608 102.78541 649 ft 0 kts 36°
2026-05-06 14:17 16.46608 102.78540 649 ft 0 kts 36°
2026-05-06 14:17 16.46613 102.78544 649 ft 2 kts 34°
2026-05-06 14:18 16.46626 102.78553 653 ft 3 kts 33°
2026-05-06 14:18 16.46639 102.78562 652 ft 5 kts 32°
2026-05-06 14:18 16.46737 102.78623 653 ft 15 kts 31°
2026-05-06 14:18 16.46799 102.78661 656 ft 16 kts 31°
2026-05-06 14:19 16.46878 102.78664 656 ft 12 kts 319°
2026-05-06 14:19 16.46935 102.78595 660 ft 11 kts 325°
2026-05-06 14:19 16.47020 102.78605 657 ft 18 kts 30°
2026-05-06 14:19 16.47137 102.78681 660 ft 23 kts 32°
2026-05-06 14:20 16.47269 102.78769 666 ft 22 kts 32°
2026-05-06 14:20 16.47400 102.78855 670 ft 22 kts 32°
2026-05-06 14:20 16.47530 102.78941 676 ft 22 kts 32°
2026-05-06 14:20 16.47657 102.79027 680 ft 22 kts 32°
2026-05-06 14:21 16.47778 102.79069 682 ft 2 kts 39°
2026-05-06 14:21 16.47782 102.79078 683 ft 2 kts 86°
2026-05-06 14:21 16.47757 102.79084 682 ft 12 kts 193°
2026-05-06 14:21 16.47458 102.78894 673 ft 89 kts 212°
2026-05-06 14:22 16.46739 102.78416 654 ft 154 kts 212°
2026-05-06 14:22 16.45728 102.77737 875 ft 187 kts 212°
2026-05-06 14:22 16.44587 102.77028 1514 ft 193 kts 210°
2026-05-06 14:22 16.43450 102.76292 2330 ft 194 kts 212°
2026-05-06 14:23 16.42295 102.75495 2851 ft 205 kts 212°
2026-05-06 14:23 16.41059 102.74649 3182 ft 220 kts 212°
2026-05-06 14:23 16.39724 102.73737 3465 ft 239 kts 215°
2026-05-06 14:23 16.38635 102.72388 3963 ft 251 kts 247°
2026-05-06 14:24 16.38398 102.70600 4742 ft 253 kts 278°
2026-05-06 14:24 16.39053 102.68901 5507 ft 256 kts 302°
2026-05-06 14:24 16.40031 102.67344 6301 ft 258 kts 304°
2026-05-06 14:24 16.41030 102.65778 7063 ft 260 kts 304°
2026-05-06 14:25 16.42034 102.64195 7829 ft 263 kts 303°
2026-05-06 14:25 16.43046 102.62586 8612 ft 266 kts 303°
2026-05-06 14:25 16.44066 102.60957 9340 ft 272 kts 303°
2026-05-06 14:25 16.45128 102.59261 9828 ft 288 kts 303°
2026-05-06 14:26 16.46247 102.57471 10337 ft 301 kts 303°
2026-05-06 14:26 16.47413 102.55607 10839 ft 314 kts 303°
2026-05-06 14:26 16.48639 102.53641 11190 ft 332 kts 303°
2026-05-06 14:26 16.49934 102.51564 11561 ft 350 kts 303°
2026-05-06 14:27 16.51299 102.49378 11925 ft 367 kts 303°
2026-05-06 14:27 16.52694 102.47103 12501 ft 376 kts 301°
2026-05-06 14:27 16.53858 102.44650 13269 ft 379 kts 292°
2026-05-06 14:27 16.54692 102.42027 13985 ft 383 kts 284°
2026-05-06 14:28 16.55291 102.39298 14650 ft 387 kts 282°
2026-05-06 14:28 16.55850 102.36535 15313 ft 391 kts 282°
2026-05-06 14:28 16.56410 102.33743 15977 ft 395 kts 282°
2026-05-06 14:28 16.56979 102.30923 16630 ft 398 kts 282°
2026-05-06 14:29 16.57556 102.28082 17264 ft 402 kts 282°
2026-05-06 14:29 16.58133 102.25253 17879 ft 406 kts 282°
2026-05-06 14:29 16.58725 102.22357 18442 ft 410 kts 282°
2026-05-06 14:29 16.59324 102.19436 18969 ft 413 kts 282°
2026-05-06 14:30 16.59926 102.16489 19512 ft 417 kts 282°
2026-05-06 14:30 16.60533 102.13521 20047 ft 420 kts 282°
2026-05-06 14:30 16.61145 102.10529 20585 ft 423 kts 282°
2026-05-06 14:30 16.61760 102.07516 21100 ft 426 kts 282°
2026-05-06 14:31 16.62378 102.04482 21617 ft 429 kts 282°
2026-05-06 14:31 16.63100 102.01449 22117 ft 432 kts 288°
2026-05-06 14:31 16.64196 101.98518 22639 ft 435 kts 295°
2026-05-06 14:31 16.65660 101.95750 23120 ft 438 kts 303°
2026-05-06 14:32 16.67384 101.93112 23584 ft 441 kts 305°
2026-05-06 14:32 16.69159 101.90492 23983 ft 444 kts 305°
2026-05-06 14:32 16.70957 101.87854 24378 ft 447 kts 305°
2026-05-06 14:32 16.72765 101.85197 24776 ft 449 kts 305°
2026-05-06 14:33 16.74576 101.82529 25198 ft 452 kts 305°
2026-05-06 14:33 16.76397 101.79841 25616 ft 454 kts 305°
2026-05-06 14:33 16.78226 101.77135 26020 ft 457 kts 305°
2026-05-06 14:33 16.80062 101.74415 26408 ft 460 kts 305°
2026-05-06 14:34 16.81910 101.71676 26807 ft 462 kts 305°
2026-05-06 14:34 16.83766 101.68921 27206 ft 465 kts 305°
2026-05-06 14:34 16.85633 101.66151 27605 ft 467 kts 305°
2026-05-06 14:34 16.87481 101.63406 28097 ft 466 kts 305°
2026-05-06 14:35 16.89344 101.60639 28691 ft 464 kts 305°
2026-05-06 14:35 16.91198 101.57884 29275 ft 462 kts 305°
2026-05-06 14:35 16.93044 101.55139 29843 ft 461 kts 304°
2026-05-06 14:35 16.94886 101.52399 30319 ft 459 kts 304°
2026-05-06 14:36 16.96720 101.49670 30782 ft 458 kts 304°
2026-05-06 14:36 16.98549 101.46946 31269 ft 456 kts 304°
2026-05-06 14:36 17.00367 101.44238 31773 ft 455 kts 305°
2026-05-06 14:36 17.02183 101.41533 32269 ft 453 kts 304°
2026-05-06 14:37 17.03991 101.38837 32701 ft 453 kts 304°
2026-05-06 14:37 17.05804 101.36134 33098 ft 454 kts 304°
2026-05-06 14:37 17.07621 101.33424 33470 ft 456 kts 304°
2026-05-06 14:37 17.09443 101.30707 33817 ft 457 kts 304°
2026-05-06 14:38 17.13089 101.25261 33860 ft 456 kts 304°
2026-05-06 14:38 17.16728 101.19825 33875 ft 456 kts 304°
2026-05-06 14:39 17.20367 101.14382 33869 ft 456 kts 304°
2026-05-06 14:39 17.24003 101.08939 33871 ft 456 kts 304°
2026-05-06 14:40 17.27637 101.03494 33873 ft 456 kts 304°
2026-05-06 14:40 17.31280 100.98059 33871 ft 456 kts 306°
2026-05-06 14:41 17.35289 100.92901 33872 ft 456 kts 311°
2026-05-06 14:41 17.39785 100.88199 33874 ft 457 kts 316°
2026-05-06 14:42 17.44424 100.83707 33861 ft 457 kts 316°
2026-05-06 14:42 17.49092 100.79199 33863 ft 455 kts 316°
2026-05-06 14:43 17.53748 100.74693 33864 ft 455 kts 316°
2026-05-06 14:43 17.58401 100.70186 33846 ft 455 kts 316°
2026-05-06 14:44 17.63054 100.65675 33842 ft 455 kts 316°
2026-05-06 14:45 17.70031 100.58903 33839 ft 455 kts 316°
2026-05-06 14:45 17.74679 100.54387 33828 ft 455 kts 316°
2026-05-06 14:46 17.79331 100.49865 33825 ft 455 kts 316°
2026-05-06 14:46 17.83977 100.45348 33830 ft 454 kts 316°
2026-05-06 14:47 17.88607 100.40840 33819 ft 453 kts 316°
2026-05-06 14:47 17.93231 100.36334 33824 ft 453 kts 316°
2026-05-06 14:48 17.97829 100.31849 33616 ft 453 kts 316°
2026-05-06 14:48 18.00131 100.29603 33313 ft 451 kts 316°
2026-05-06 14:48 18.02428 100.27361 32938 ft 449 kts 316°
2026-05-06 14:48 18.04709 100.25134 32432 ft 447 kts 316°
2026-05-06 14:49 18.06990 100.22906 31868 ft 447 kts 316°
2026-05-06 14:49 18.09279 100.20688 31279 ft 448 kts 318°
2026-05-06 14:49 18.11788 100.18742 30670 ft 450 kts 327°
2026-05-06 14:49 18.14565 100.17211 30070 ft 452 kts 335°
2026-05-06 14:50 18.17542 100.16126 29363 ft 455 kts 343°
2026-05-06 14:50 18.20661 100.15483 28666 ft 457 kts 349°
2026-05-06 14:50 18.23807 100.14980 27985 ft 458 kts 350°
2026-05-06 14:50 18.26962 100.14499 27305 ft 459 kts 350°
2026-05-06 14:51 18.30111 100.14021 26833 ft 455 kts 350°
2026-05-06 14:51 18.33231 100.13546 26393 ft 450 kts 350°
2026-05-06 14:51 18.36311 100.13074 25960 ft 446 kts 350°
2026-05-06 14:51 18.39371 100.12602 25522 ft 442 kts 350°
2026-05-06 14:52 18.42405 100.12132 25090 ft 439 kts 350°
2026-05-06 14:52 18.45410 100.11665 24657 ft 435 kts 350°
2026-05-06 14:52 18.48398 100.11201 24229 ft 433 kts 350°
2026-05-06 14:52 18.51366 100.10739 23791 ft 430 kts 350°
2026-05-06 14:53 18.54319 100.10279 23352 ft 428 kts 350°
2026-05-06 14:53 18.57251 100.09822 22857 ft 425 kts 350°
2026-05-06 14:53 18.60160 100.09369 22419 ft 421 kts 350°
2026-05-06 14:53 18.63043 100.08920 21990 ft 417 kts 350°
2026-05-06 14:54 18.65900 100.08475 21574 ft 413 kts 350°
2026-05-06 14:54 18.68724 100.08034 21157 ft 409 kts 350°
2026-05-06 14:54 18.71529 100.07596 20750 ft 406 kts 350°
2026-05-06 14:54 18.74311 100.07162 20351 ft 402 kts 350°
2026-05-06 14:55 18.77068 100.06731 19940 ft 399 kts 350°
2026-05-06 14:55 18.79807 100.06304 19544 ft 396 kts 350°
2026-05-06 14:55 18.82526 100.05883 19135 ft 393 kts 351°
2026-05-06 14:55 18.85227 100.05466 18745 ft 391 kts 351°
2026-05-06 14:56 18.87906 100.05054 18357 ft 388 kts 350°
2026-05-06 14:56 18.90571 100.04641 17932 ft 386 kts 350°
2026-05-06 14:56 18.93218 100.04231 17488 ft 383 kts 350°
2026-05-06 14:56 18.95850 100.03822 17056 ft 381 kts 350°
2026-05-06 14:57 18.98466 100.03417 16630 ft 379 kts 350°
2026-05-06 14:57 19.01062 100.03014 16199 ft 377 kts 350°
2026-05-06 14:57 19.03650 100.02612 15772 ft 375 kts 350°
2026-05-06 14:57 19.06229 100.02211 15349 ft 374 kts 350°
2026-05-06 14:58 19.08798 100.01812 14918 ft 372 kts 350°
2026-05-06 14:58 19.11323 100.01419 14504 ft 371 kts 350°
2026-05-06 14:58 19.13876 100.01023 14084 ft 370 kts 350°
2026-05-06 14:58 19.16422 100.00626 13669 ft 369 kts 350°
2026-05-06 14:59 19.18960 100.00232 13189 ft 368 kts 350°
2026-05-06 14:59 19.21482 99.99842 12761 ft 366 kts 350°
2026-05-06 14:59 19.23991 99.99451 12348 ft 363 kts 350°
2026-05-06 14:59 19.26479 99.99063 11948 ft 360 kts 350°
2026-05-06 15:00 19.28950 99.98678 11549 ft 357 kts 350°
2026-05-06 15:00 19.31399 99.98296 11152 ft 354 kts 350°
2026-05-06 15:00 19.33843 99.97914 10769 ft 352 kts 350°
2026-05-06 15:00 19.36252 99.97538 10441 ft 346 kts 350°
2026-05-06 15:01 19.37917 99.97279 10384 ft 336 kts 350°
2026-05-06 15:01 19.40187 99.96925 10261 ft 324 kts 350°
2026-05-06 15:01 19.42378 99.96584 10149 ft 312 kts 350°
2026-05-06 15:01 19.44455 99.96125 10023 ft 299 kts 339°
2026-05-06 15:02 19.46270 99.95171 9977 ft 289 kts 324°
2026-05-06 15:02 19.47864 99.93863 9965 ft 290 kts 319°
2026-05-06 15:02 19.49420 99.92496 9652 ft 291 kts 319°
2026-05-06 15:02 19.50971 99.91121 9291 ft 289 kts 319°
2026-05-06 15:03 19.52511 99.89764 8947 ft 287 kts 319°
2026-05-06 15:03 19.54045 99.88418 8632 ft 284 kts 319°
2026-05-06 15:03 19.55564 99.87087 8310 ft 282 kts 319°
2026-05-06 15:03 19.57069 99.85768 7998 ft 280 kts 319°
2026-05-06 15:04 19.58567 99.84456 7690 ft 278 kts 319°
2026-05-06 15:04 19.60056 99.83152 7387 ft 277 kts 319°
2026-05-06 15:04 19.61538 99.81852 7084 ft 275 kts 319°
2026-05-06 15:04 19.63014 99.80559 6787 ft 274 kts 319°
2026-05-06 15:05 19.64490 99.79269 6491 ft 273 kts 319°
2026-05-06 15:05 19.65955 99.77987 6184 ft 273 kts 319°
2026-05-06 15:05 19.67411 99.76713 6020 ft 267 kts 319°
2026-05-06 15:05 19.68808 99.75494 6007 ft 253 kts 320°
2026-05-06 15:06 19.70340 99.74690 5983 ft 244 kts 350°
2026-05-06 15:06 19.72024 99.74781 5882 ft 246 kts 15°
2026-05-06 15:06 19.73609 99.75470 5582 ft 247 kts 27°
2026-05-06 15:06 19.75116 99.76365 5263 ft 249 kts 30°
2026-05-06 15:07 19.76610 99.77296 4931 ft 249 kts 30°
2026-05-06 15:07 19.78104 99.78209 4662 ft 245 kts 30°
2026-05-06 15:07 19.79566 99.79081 4361 ft 238 kts 30°
2026-05-06 15:07 19.80515 99.79639 4139 ft 232 kts 29°
2026-05-06 15:08 19.81897 99.80449 3862 ft 221 kts 29°
2026-05-06 15:08 19.83215 99.81221 3557 ft 210 kts 30°
2026-05-06 15:08 19.84449 99.81946 3293 ft 196 kts 30°
2026-05-06 15:08 19.85599 99.82622 3062 ft 181 kts 30°
2026-05-06 15:09 19.86987 99.83439 2784 ft 165 kts 29°
2026-05-06 15:09 19.87668 99.83840 2657 ft 166 kts 30°
2026-05-06 15:09 19.88683 99.84438 2448 ft 167 kts 31°
2026-05-06 15:09 19.89697 99.85037 2270 ft 166 kts 30°
2026-05-06 15:10 19.91028 99.85820 1993 ft 163 kts 29°
2026-05-06 15:10 19.91697 99.86215 1843 ft 162 kts 29°
2026-05-06 15:10 19.92671 99.86796 1635 ft 159 kts 29°
2026-05-06 15:10 19.93638 99.87364 1424 ft 158 kts 29°
2026-05-06 15:11 19.94584 99.87918 1295 ft 143 kts 29°
2026-05-06 15:11 19.95259 99.88313 1292 ft 81 kts 28°
2026-05-06 15:11 19.95716 99.88580 1293 ft 61 kts 28°
2026-05-06 15:11 19.96046 99.88773 1293 ft 46 kts 28°
2026-05-06 15:12 19.96259 99.88886 1292 ft 21 kts
2026-05-06 15:12 19.96355 99.88904 1292 ft 5 kts 73°